• In Hungary
  • List of Countries
  • For 7 days
  • Water Temperature
  • Satellite Maps
  • Weather Map
  • News
  • Weather Widgets
  • user-avatar
    Login

    Hourly Weather Stanislavivka

    Today, 18 October, Wednesday

    Time Temperature Precipitation Wind Pressure Humidity
    00:00 +13°C° 0 mm 2 mps 744 mmHg 91%
    01:00 +13°C° 0 mm 2 mps 744 mmHg 91%
    02:00 +12°C° 0 mm 2 mps 743 mmHg 91%
    03:00 +12°C° 0 mm 2 mps 743 mmHg 91%
    04:00 +12°C° 0 mm 2 mps 743 mmHg 91%
    05:00 +11°C° 0 mm 3 mps 743 mmHg 91%
    06:00 +11°C° 0 mm 3 mps 742 mmHg 89%
    07:00 +12°C° 0 mm 3 mps 742 mmHg 87%
    08:00 +12°C° 0 mm 4 mps 743 mmHg 82%
    09:00 +14°C° 0 mm 4 mps 742 mmHg 76%
    10:00 +17°C° 0 mm 4 mps 742 mmHg 69%
    11:00 +19°C° 0 mm 4 mps 742 mmHg 63%
    12:00 +20°C° 0 mm 4 mps 742 mmHg 60%
    13:00 +20°C° 0 mm 4 mps 741 mmHg 56%
    14:00 +21°C° 0 mm 4 mps 741 mmHg 52%
    15:00 +20°C° 0 mm 3 mps 741 mmHg 57%
    16:00 +19°C° 0 mm 3 mps 740 mmHg 62%
    17:00 +17°C° 0 mm 2 mps 740 mmHg 67%
    18:00 +16°C° 0 mm 2 mps 740 mmHg 69%
    19:00 +15°C° 0 mm 2 mps 740 mmHg 72%
    20:00 +15°C° 0 mm 2 mps 740 mmHg 74%
    21:00 +14°C° 0 mm 2 mps 740 mmHg 75%
    22:00 +14°C° 0 mm 2 mps 740 mmHg 77%
    23:00 +13°C° 0 mm 2 mps 740 mmHg 78%

    Tomorrow, 19 October, Thursday

    Time Temperature Precipitation Wind Pressure Humidity
    00:00 +13°C° 0 mm 2 mps 740 mmHg 79%
    01:00 +13°C° 0 mm 2 mps 740 mmHg 80%
    02:00 +13°C° 0 mm 2 mps 740 mmHg 82%
    03:00 +12°C° 0 mm 1 mps 739 mmHg 82%
    04:00 +12°C° 0 mm 1 mps 739 mmHg 82%
    05:00 +12°C° 0 mm 1 mps 739 mmHg 83%
    06:00 +13°C° 0 mm 1 mps 739 mmHg 81%
    07:00 +13°C° 0 mm 1 mps 739 mmHg 80%
    08:00 +14°C° 0 mm 1 mps 740 mmHg 78%
    09:00 +15°C° 0 mm 1 mps 740 mmHg 72%
    10:00 +18°C° 0 mm 1 mps 740 mmHg 66%
    11:00 +19°C° 0 mm 1 mps 740 mmHg 60%
    12:00 +20°C° 0 mm 1 mps 740 mmHg 57%
    13:00 +21°C° 0 mm 1 mps 739 mmHg 55%
    14:00 +19°C° 0 mm 0 mps 739 mmHg 53%
    15:00 +18°C° 0 mm 0 mps 739 mmHg 58%
    16:00 +17°C° 0 mm 0 mps 739 mmHg 62%
    17:00 +16°C° 0 mm 0 mps 739 mmHg 67%
    18:00 +16°C° 0 mm 1 mps 739 mmHg 70%
    19:00 +15°C° 0 mm 1 mps 739 mmHg 73%
    20:00 +14°C° 0 mm 1 mps 739 mmHg 76%
    21:00 +14°C° 0 mm 1 mps 739 mmHg 78%
    22:00 +13°C° 0 mm 1 mps 740 mmHg 80%
    23:00 +13°C° 0 mm 1 mps 740 mmHg 82%

    Day after tomorrow, 20 October, Friday

    Time Temperature Precipitation Wind Pressure Humidity
    00:00 +13°C° 0 mm 1 mps 740 mmHg 85%
    01:00 +12°C° 0 mm 2 mps 740 mmHg 87%
    02:00 +12°C° 0 mm 2 mps 740 mmHg 89%
    03:00 +10°C° 0 mm 2 mps 740 mmHg 90%
    04:00 +10°C° 0 mm 2 mps 740 mmHg 92%
    05:00 +10°C° 0 mm 2 mps 740 mmHg 94%
    06:00 +10°C° 0 mm 2 mps 741 mmHg 93%
    07:00 +10°C° 0 mm 3 mps 741 mmHg 91%
    08:00 +10°C° 0 mm 3 mps 742 mmHg 90%
    09:00 +11°C° 0 mm 3 mps 742 mmHg 84%
    10:00 +13°C° 0 mm 3 mps 742 mmHg 78%
    11:00 +14°C° 0 mm 4 mps 743 mmHg 72%
    12:00 +14°C° 0 mm 4 mps 743 mmHg 69%
    13:00 +15°C° 0 mm 4 mps 743 mmHg 67%
    14:00 +15°C° 0 mm 4 mps 743 mmHg 64%
    15:00 +14°C° 0 mm 3 mps 743 mmHg 67%
    16:00 +13°C° 0 mm 3 mps 743 mmHg 69%
    17:00 +12°C° 0 mm 3 mps 743 mmHg 72%
    18:00 +11°C° 0 mm 3 mps 743 mmHg 71%
    19:00 +10°C° 0 mm 3 mps 744 mmHg 70%
    20:00 +9°C° 0 mm 3 mps 744 mmHg 69%
    21:00 +8°C° 0 mm 3 mps 744 mmHg 69%
    22:00 +8°C° 0 mm 3 mps 745 mmHg 69%
    23:00 +7°C° 0 mm 3 mps 745 mmHg 69%

    21 October, Saturday

    Time Temperature Precipitation Wind Pressure Humidity
    00:00 +7°C° 0 mm 2 mps 745 mmHg 70%
    01:00 +6°C° 0 mm 2 mps 745 mmHg 71%
    02:00 +6°C° 0 mm 2 mps 745 mmHg 72%
    03:00 +5°C° 0 mm 2 mps 745 mmHg 74%
    04:00 +5°C° 0 mm 2 mps 745 mmHg 75%
    05:00 +5°C° 0 mm 2 mps 745 mmHg 77%
    06:00 +4°C° 0 mm 3 mps 746 mmHg 77%
    07:00 +4°C° 0 mm 3 mps 746 mmHg 77%
    08:00 +4°C° 0 mm 3 mps 746 mmHg 76%
    09:00 +7°C° 0 mm 3 mps 746 mmHg 70%
    10:00 +8°C° 0 mm 3 mps 747 mmHg 64%
    11:00 +10°C° 0 mm 3 mps 747 mmHg 58%
    12:00 +10°C° 0 mm 3 mps 747 mmHg 55%
    13:00 +11°C° 0 mm 3 mps 746 mmHg 52%
    14:00 +11°C° 0 mm 3 mps 746 mmHg 48%
    15:00 +10°C° 0 mm 3 mps 746 mmHg 53%
    16:00 +9°C° 0 mm 3 mps 746 mmHg 57%
    17:00 +8°C° 0 mm 2 mps 746 mmHg 62%
    18:00 +7°C° 0 mm 3 mps 746 mmHg 64%
    19:00 +7°C° 0 mm 3 mps 746 mmHg 67%
    20:00 +5°C° 0 mm 3 mps 746 mmHg 69%
    21:00 +5°C° 0 mm 3 mps 746 mmHg 70%
    22:00 +4°C° 0 mm 3 mps 746 mmHg 71%
    23:00 +4°C° 0 mm 3 mps 746 mmHg 72%

    22 October, Sunday

    Time Temperature Precipitation Wind Pressure Humidity
    00:00 +4°C° 0 mm 4 mps 746 mmHg 72%
    01:00 +4°C° 0 mm 4 mps 746 mmHg 72%
    02:00 +3°C° 0 mm 4 mps 746 mmHg 72%
    03:00 +3°C° 0 mm 4 mps 745 mmHg 72%
    04:00 +3°C° 0 mm 4 mps 745 mmHg 73%
    05:00 +3°C° 0 mm 4 mps 745 mmHg 73%
    06:00 +3°C° 0 mm 4 mps 745 mmHg 71%
    07:00 +4°C° 0 mm 4 mps 744 mmHg 70%
    08:00 +3°C° 0 mm 5 mps 744 mmHg 69%
    09:00 +6°C° 0 mm 5 mps 744 mmHg 64%
    10:00 +7°C° 0 mm 5 mps 744 mmHg 59%
    11:00 +9°C° 0 mm 6 mps 743 mmHg 54%
    12:00 +10°C° 0 mm 5 mps 743 mmHg 53%
    13:00 +12°C° 0 mm 5 mps 742 mmHg 52%
    14:00 +13°C° 0 mm 5 mps 742 mmHg 52%
    15:00 +12°C° 0 mm 5 mps 741 mmHg 56%
    16:00 +11°C° 0 mm 4 mps 741 mmHg 60%
    17:00 +10°C° 0 mm 3 mps 741 mmHg 64%
    18:00 +9°C° 0 mm 3 mps 741 mmHg 65%
    19:00 +7°C° 0 mm 4 mps 740 mmHg 66%
    20:00 +7°C° 0 mm 4 mps 740 mmHg 67%
    21:00 +7°C° 0 mm 4 mps 740 mmHg 69%
    22:00 +6°C° 0 mm 4 mps 740 mmHg 71%
    23:00 +6°C° 0 mm 4 mps 740 mmHg 73%

    23 October, Monday

    Time Temperature Precipitation Wind Pressure Humidity
    00:00 +7°C° 0 mm 3 mps 740 mmHg 76%
    01:00 +7°C° 0 mm 3 mps 740 mmHg 80%
    02:00 +7°C° 0 mm 3 mps 740 mmHg 84%
    03:00 +5°C° 0 mm 3 mps 740 mmHg 86%
    04:00 +5°C° 0 mm 3 mps 740 mmHg 87%
    05:00 +5°C° 0 mm 3 mps 739 mmHg 89%
    06:00 +5°C° 0 mm 3 mps 740 mmHg 88%
    07:00 +7°C° 0 mm 3 mps 740 mmHg 87%
    08:00 +7°C° 0 mm 3 mps 740 mmHg 86%
    09:00 +8°C° 0 mm 3 mps 740 mmHg 82%
    10:00 +10°C° 0 mm 4 mps 740 mmHg 79%
    11:00 +11°C° 0 mm 4 mps 740 mmHg 75%
    12:00 +12°C° 0 mm 4 mps 740 mmHg 74%
    13:00 +12°C° 0 mm 3 mps 740 mmHg 73%
    14:00 +13°C° 0 mm 3 mps 740 mmHg 72%
    15:00 +12°C° 0 mm 3 mps 740 mmHg 75%
    16:00 +12°C° 0 mm 2 mps 740 mmHg 79%
    17:00 +12°C° 0 mm 2 mps 740 mmHg 82%
    18:00 +10°C° 0 mm 2 mps 740 mmHg 82%
    19:00 +10°C° 0 mm 2 mps 741 mmHg 83%
    20:00 +11°C° 0 mm 1 mps 741 mmHg 83%
    21:00 +10°C° 0 mm 2 mps 741 mmHg 82%
    22:00 +9°C° 0 mm 2 mps 741 mmHg 82%
    23:00 +9°C° 0 mm 2 mps 741 mmHg 81%
    Show more